Weather History for Oscoda, MI

Change the Weather History Date:

Monday, November 7, 2011

  Actual Average Record
Temperature  
Mean Temperature 50 °F -  
Max Temperature 60 °F 46 °F 60 °F (2011)
Min Temperature 41 °F 31 °F 15 °F (2002)
Degree Days  
Heating Degree Days 14    
Moisture  
Dew Point 36 °F    
Average Humidity 57    
Maximum Humidity 100    
Minimum Humidity 25    
Precipitation  
Precipitation 0.00 in - - ()
Sea Level Pressure  
Sea Level Pressure 30.11 in    
Wind  
Wind Speed 9 mph (SW)    
Max Wind Speed 16 mph    
Max Gust Speed 22 mph    
Visibility 10 miles    
Events      
Averages and records for this station are not official NWS values.
T = Trace of Precipitation, MM = Missing Value Source: NWS Daily Summary

Daily Weather History Graph

Daily Weather History Graph

Search for Another Location

Airport:

Trip Planner

Search our weather history database for the weather conditions in past years. The results will help you decide how hot, cold, wet, or windy it might be!

Date:

Astronomy

Nov. 07, 2011 Rise Set
Actual Time 7:18 AM EST 5:15 PM EST
Civil Twilight 6:47 AM EST 5:45 PM EST
Nautical Twilight 6:13 AM EST 6:20 PM EST
Astronomical Twilight 5:39 AM EST 6:54 PM EST
Moon 3:29 PM EST (11/7) 4:15 AM EST (11/7)
Length of Visible Light 10h 58m
Length of Day
9h 56m
Waxing Gibbous, 91% of the Moon is Illuminated
Nov 7
Waxing Gibbous
Nov 10
Full
Nov 18
Last Quarter
Nov 25
New
Dec 2
First Quarter

Hourly Weather History & Observations

Time (EST) Temp. Windchill Dew Point Humidity Pressure Visibility Wind Dir Wind Speed Gust Speed Precip Events Conditions
12:14 AM 55.4 °F - 44.6 °F 67% 30.02 in 10.0 mi SSW 9.2 mph - N/A   Overcast
12:33 AM 55.4 °F - 44.6 °F 67% 30.03 in 10.0 mi SSW 12.7 mph 17.3 mph N/A   Overcast
12:53 AM 55.4 °F - 44.6 °F 67% 30.03 in 10.0 mi SW 12.7 mph - N/A   Overcast
1:14 AM 55.4 °F - 44.6 °F 67% 30.03 in 10.0 mi SSW 9.2 mph - N/A   Overcast
1:33 AM 55.4 °F - 44.6 °F 67% 30.04 in 10.0 mi SW 8.1 mph - N/A   Overcast
1:53 AM 55.4 °F - 44.6 °F 67% 30.04 in 10.0 mi SSW 6.9 mph - N/A   Mostly Cloudy
2:14 AM 53.6 °F - 44.6 °F 72% 30.05 in 10.0 mi South 5.8 mph - N/A   Scattered Clouds
2:33 AM 51.8 °F - 44.6 °F 76% 30.05 in 10.0 mi South 5.8 mph - N/A   Clear
2:53 AM 53.6 °F - 44.6 °F 72% 30.05 in 10.0 mi SSW 8.1 mph - N/A   Mostly Cloudy
3:14 AM 51.8 °F - 44.6 °F 76% 30.05 in 10.0 mi South 6.9 mph - N/A   Mostly Cloudy
3:33 AM 51.8 °F - 44.6 °F 76% 30.06 in 10.0 mi SSW 6.9 mph - N/A   Scattered Clouds
3:53 AM 51.8 °F - 44.6 °F 76% 30.06 in 10.0 mi SSW 8.1 mph - N/A   Clear
4:14 AM 51.8 °F - 44.6 °F 76% 30.06 in 10.0 mi SSW 6.9 mph - N/A   Clear
4:33 AM 51.8 °F - 44.6 °F 76% 30.07 in 10.0 mi SSW 5.8 mph - N/A   Clear
4:53 AM 50.0 °F - 44.6 °F 82% 30.07 in 10.0 mi SSW 6.9 mph - N/A   Clear
5:14 AM 50.0 °F - 44.6 °F 82% 30.08 in 10.0 mi South 5.8 mph - N/A   Clear
5:33 AM 50.0 °F - 44.6 °F 82% 30.09 in 10.0 mi SSW 6.9 mph - N/A   Clear
5:53 AM 50.0 °F - 44.6 °F 82% 30.09 in 10.0 mi SSW 10.4 mph - N/A   Clear
6:14 AM 50.0 °F - 44.6 °F 82% 30.10 in 10.0 mi SSW 8.1 mph - N/A   Clear
6:33 AM 44.6 °F 40.7 °F 42.8 °F 93% 30.11 in 10.0 mi SW 6.9 mph - N/A   Scattered Clouds
6:53 AM 44.6 °F 40.7 °F 41.0 °F 87% 30.12 in 10.0 mi SW 6.9 mph - N/A   Scattered Clouds
7:13 AM 44.6 °F 42.2 °F 42.8 °F 93% 30.13 in 10.0 mi West 4.6 mph - N/A   Mostly Cloudy
7:33 AM 44.6 °F 41.4 °F 42.8 °F 93% 30.13 in 10.0 mi SW 5.8 mph - N/A   Scattered Clouds
7:53 AM 41.0 °F 37.1 °F 41.0 °F 100% 30.14 in 7.0 mi WSW 5.8 mph - N/A   Clear
8:13 AM 42.8 °F 40.1 °F 41.0 °F 93% 30.15 in 7.0 mi WSW 4.6 mph - N/A   Clear
8:33 AM 46.4 °F 42.9 °F 42.8 °F 87% 30.15 in 10.0 mi West 6.9 mph - N/A   Clear
8:53 AM 50.0 °F - 41.0 °F 71% 30.15 in 10.0 mi WSW 6.9 mph - N/A   Clear
9:14 AM 51.8 °F - 37.4 °F 58% 30.16 in 10.0 mi WSW 10.4 mph - N/A   Clear
9:33 AM 51.8 °F - 37.4 °F 58% 30.16 in 10.0 mi WSW 10.4 mph - N/A   Clear
9:54 AM 53.6 °F - 35.6 °F 51% 30.16 in 10.0 mi WSW 9.2 mph - N/A   Clear
10:14 AM 55.4 °F - 32.0 °F 41% 30.16 in 10.0 mi West 9.2 mph - N/A   Clear
10:33 AM 55.4 °F - 32.0 °F 41% 30.16 in 10.0 mi WSW 9.2 mph - N/A   Clear
10:54 AM 55.4 °F - 30.2 °F 38% 30.16 in 10.0 mi West 8.1 mph - N/A   Clear
11:13 AM 57.2 °F - 30.2 °F 36% 30.16 in 10.0 mi WSW 9.2 mph - N/A   Clear
11:33 AM 59.0 °F - 30.2 °F 34% 30.16 in 10.0 mi SW 10.4 mph - N/A   Clear
11:54 AM 59.0 °F - 26.6 °F 29% 30.15 in 10.0 mi WSW 13.8 mph - N/A   Clear
12:13 PM 59.0 °F - 26.6 °F 29% 30.14 in 10.0 mi SW 11.5 mph - N/A   Clear
12:33 PM 59.0 °F - 26.6 °F 29% 30.14 in 10.0 mi WSW 12.7 mph 17.3 mph N/A   Clear
12:54 PM 60.8 °F - 26.6 °F 27% 30.13 in 10.0 mi WSW 13.8 mph 20.7 mph N/A   Clear
1:13 PM 60.8 °F - 24.8 °F 25% 30.13 in 10.0 mi WSW 13.8 mph 21.9 mph N/A   Clear
1:33 PM 59.0 °F - 26.6 °F 29% 30.13 in 10.0 mi WSW 16.1 mph 19.6 mph N/A   Clear
1:54 PM 60.8 °F - 28.4 °F 29% 30.12 in 10.0 mi WSW 12.7 mph 18.4 mph N/A   Clear
2:13 PM 59.0 °F - 26.6 °F 29% 30.12 in 10.0 mi West 13.8 mph - N/A   Clear
2:33 PM 60.8 °F - 26.6 °F 27% 30.12 in 10.0 mi WSW 16.1 mph 21.9 mph N/A   Clear
2:54 PM 59.0 °F - 28.4 °F 31% 30.12 in 10.0 mi WSW 11.5 mph - N/A   Clear
3:13 PM 59.0 °F - 26.6 °F 29% 30.12 in 10.0 mi WSW 10.4 mph - N/A   Clear
3:33 PM 59.0 °F - 26.6 °F 29% 30.12 in 10.0 mi WSW 12.7 mph - N/A   Clear
3:54 PM 59.0 °F - 26.6 °F 29% 30.13 in 10.0 mi WSW 11.5 mph - N/A   Clear
4:13 PM 55.4 °F - 26.6 °F 33% 30.13 in 10.0 mi WSW 8.1 mph - N/A   Clear
4:33 PM 53.6 °F - 28.4 °F 38% 30.13 in 10.0 mi WSW 9.2 mph - N/A   Clear
4:54 PM 53.6 °F - 28.4 °F 38% 30.13 in 10.0 mi WSW 6.9 mph - N/A   Clear
5:13 PM 51.8 °F - 28.4 °F 41% 30.14 in 10.0 mi SW 6.9 mph - N/A   Clear
5:33 PM 50.0 °F - 28.4 °F 43% 30.14 in 10.0 mi WSW 5.8 mph - N/A   Clear
5:54 PM 50.0 °F - 26.6 °F 40% 30.15 in 10.0 mi WSW 4.6 mph - N/A   Clear
6:13 PM 48.2 °F - 26.6 °F 43% 30.15 in 10.0 mi SW 4.6 mph - N/A   Clear
6:33 PM 44.6 °F 42.2 °F 28.4 °F 53% 30.15 in 10.0 mi SW 4.6 mph - N/A   Clear
6:53 PM 44.6 °F - 28.4 °F 53% 30.16 in 10.0 mi Calm Calm - N/A   Clear
7:13 PM 42.8 °F - 28.4 °F 57% 30.16 in 10.0 mi Calm Calm - N/A   Clear
7:33 PM 42.8 °F 41.1 °F 28.4 °F 57% 30.17 in 10.0 mi SSW 3.5 mph - N/A   Clear
7:54 PM 41.0 °F - 28.4 °F 61% 30.17 in 10.0 mi Calm Calm - N/A   Clear
8:13 PM 41.0 °F - 28.4 °F 61% 30.17 in 10.0 mi Calm Calm - N/A   Clear
8:34 PM 41.0 °F - 28.4 °F 61% 30.18 in 10.0 mi Calm Calm - N/A   Clear
8:53 PM 39.2 °F - 28.4 °F 65% 30.19 in 10.0 mi Calm Calm - N/A   Clear
9:13 PM 37.4 °F 34.9 °F 28.4 °F 70% 30.19 in 10.0 mi South 3.5 mph - N/A   Clear
9:34 PM 37.4 °F 34.9 °F 28.4 °F 70% 30.19 in 10.0 mi SSW 3.5 mph - N/A   Clear
9:53 PM 39.2 °F 34.2 °F 28.4 °F 65% 30.20 in 10.0 mi SSW 6.9 mph - N/A   Clear
10:13 PM 41.0 °F 37.1 °F 28.4 °F 61% 30.20 in 10.0 mi SSW 5.8 mph - N/A   Clear
10:34 PM 35.6 °F 30.7 °F 28.4 °F 75% 30.20 in 10.0 mi SW 5.8 mph - N/A   Clear
10:53 PM 35.6 °F 30.7 °F 26.6 °F 70% 30.21 in 10.0 mi SSW 5.8 mph - N/A   Clear
11:13 PM 35.6 °F 31.7 °F 30.2 °F 81% 30.20 in 10.0 mi SW 4.6 mph - N/A   Clear
11:34 PM 33.8 °F 30.8 °F 28.4 °F 81% 30.20 in 10.0 mi SW 3.5 mph - N/A   Clear
11:53 PM 32.0 °F 27.5 °F 28.4 °F 87% 30.20 in 10.0 mi WSW 4.6 mph - N/A   Clear